[TLELIST] Archives

 

[list_settings.list_name] Current TLEs

January 18th 2014 PDT

HST 1 20580U 90037B 14017.85649259 .00002290 00000-0 14749-3 0 4182 2 20580 028.4708 304.7498 0003217 118.3208 297.1388 15.04529354102040 ISS (ZARYA) 1 25544U 98067A 14018.43871882 -.00014866 00000-0 -25533-3 0 4909 2 25544 051.6470 121.8252 0003570 037.6980 049.4280 15.49738934868095 CXO 1 25867U 99040B 14019.79493125 .00000003 00000-0 00000+0 0 9841 2 25867 076.4939 327.5831 8315370 275.7367 000.8519 00.37799115 11356 ____________________________________________________________________ These 2-Line ...Continue Reading

[list_settings.list_name] Current TLEs

January 17th 2014 PDT

HST 1 20580U 90037B 14016.27820477 .00002717 00000-0 17728-3 0 4173 2 20580 028.4712 315.1102 0003272 101.8188 028.2971 15.04523215101813 ISS (ZARYA) 1 25544U 98067A 14017.27923134 .00010285 00000-0 18489-3 0 4819 2 25544 051.6508 127.5632 0006210 038.0502 054.0506 15.50461168867918 CXO 1 25867U 99040B 14019.79493125 .00000003 00000-0 00000+0 0 9841 2 25867 076.4939 327.5831 8315370 275.7367 000.8519 00.37799115 11356 ____________________________________________________________________ These 2-Line ...Continue Reading

[list_settings.list_name] Current TLEs

January 16th 2014 PDT

HST 1 20580U 90037B 14015.21829808 .00002829 00000-0 18508-3 0 4163 2 20580 028.4715 322.0674 0003314 090.8089 047.2265 15.04520031101653 ISS (ZARYA) 1 25544U 98067A 14016.44582537 .00010845 00000-0 19462-3 0 4741 2 25544 051.6485 131.6941 0006028 035.1859 082.0869 15.50445323867784 CXO 1 25867U 99040B 14 14.54860074 .00000000 00000-0 10000-3 0 9763 2 25867 076.4656 327.7594 8323707 275.8753 006.5392 00.37814076 11348 ____________________________________________________________________ These 2-Line ...Continue Reading

[list_settings.list_name] Current TLEs

January 15th 2014 PDT

HST 1 20580U 90037B 14015.21829808 .00002829 00000-0 18508-3 0 4163 2 20580 028.4715 322.0674 0003314 090.8089 047.2265 15.04520031101653 ISS (ZARYA) 1 25544U 98067A 14015.21298854 .00012621 00000-0 22531-3 0 4634 2 25544 051.6500 137.8061 0006087 030.2718 041.3291 15.50424322867590 CXO 1 25867U 99040B 14017.14987108 -.00000052 00000-0 00000+0 0 9831 2 25867 076.4834 327.6993 8316803 275.7849 000.7419 00.37795800 11341 ____________________________________________________________________ These 2-Line ...Continue Reading

[list_settings.list_name] Current TLEs

January 14th 2014 PDT

HST 1 20580U 90037B 14013.36020020 .00002918 00000-0 19135-3 0 4151 2 20580 028.4717 334.2633 0003312 072.6199 061.6339 15.04509189101375 ISS (ZARYA) 1 25544U 98067A 14014.44016882 .00013181 00000-0 23508-3 0 4588 2 25544 051.6501 141.6366 0005978 028.2195 047.0576 15.50406912867477 CXO 1 25867U 99040B 14014.50394475 -.00000177 00000-0 00000+0 0 9824 2 25867 076.4673 327.8171 8320774 275.8333 000.5032 00.37797426 11337 ____________________________________________________________________ These 2-Line ...Continue Reading

[list_settings.list_name] Current TLEs

January 13th 2014 PDT

HST 1 20580U 90037B 14011.36882485 .00003937 00000-0 26242-3 0 4148 2 20580 028.4717 347.3344 0003338 053.3823 073.8757 15.04496584101077 ISS (ZARYA) 1 25544U 98067A 14013.21566907 .00013182 00000-0 23539-3 0 4529 2 25544 051.6503 147.7057 0005863 024.5727 051.7628 15.50373589867288 CXO 1 25867U 99040B 14014.50394475 -.00000177 00000-0 00000+0 0 9824 2 25867 076.4673 327.8171 8320774 275.8333 000.5032 00.37797426 11337 ____________________________________________________________________ These 2-Line ...Continue Reading

[list_settings.list_name] Current TLEs

January 12th 2014 PDT

HST 1 20580U 90037B 14011.36882485 .00003937 00000-0 26242-3 0 4148 2 20580 028.4717 347.3344 0003338 053.3823 073.8757 15.04496584101077 ISS (ZARYA) 1 25544U 98067A 14012.44801424 .00013118 00000-0 23449-3 0 4472 2 25544 051.6471 151.5107 0005677 019.8508 089.1280 15.50349174867167 CXO 1 25867U 99040B 14014.50394475 -.00000177 00000-0 00000+0 0 9824 2 25867 076.4673 327.8171 8320774 275.8333 000.5032 00.37797426 11337 ____________________________________________________________________ These 2-Line ...Continue Reading

[list_settings.list_name] Current TLEs

January 11th 2014 PDT

HST 1 20580U 90037B 14010.16812693 .00005342 00000-0 36033-3 0 4139 2 20580 028.4718 355.2156 0003298 041.8217 049.4069 15.04488954100886 ISS (ZARYA) 1 25544U 98067A 14011.48116730 .00013242 00000-0 23681-3 0 4403 2 25544 051.6488 156.3002 0005672 017.5631 091.6790 15.50326664867016 CXO 1 25867U 99040B 14011.85883760 -.00000379 00000-0 00000+0 0 9812 2 25867 076.4500 327.9621 8324543 275.8651 000.3861 00.37800110 11320 ____________________________________________________________________ These 2-Line ...Continue Reading

[list_settings.list_name] Current TLEs

January 10th 2014 PDT

HST 1 20580U 90037B 14010.16812693 .00005342 00000-0 36033-3 0 4139 2 20580 028.4718 355.2156 0003298 041.8217 049.4069 15.04488954100886 ISS (ZARYA) 1 25544U 98067A 14010.44022191 .00012652 00000-0 22688-3 0 4337 2 25544 051.6482 161.4597 0005530 013.4924 042.2628 15.50295990866859 CXO 1 25867U 99040B 14011.85883760 -.00000379 00000-0 00000+0 0 9812 2 25867 076.4500 327.9621 8324543 275.8651 000.3861 00.37800110 11320 ____________________________________________________________________ These 2-Line ...Continue Reading

[list_settings.list_name] Current TLEs

January 9th 2014 PDT

HST 1 20580U 90037B 14008.45095572 .00003451 00000-0 22865-3 0 4123 2 20580 028.4717 006.4867 0003289 024.1519 108.2689 15.04478908100631 ISS (ZARYA) 1 25544U 98067A 14009.40519008 .00010772 00000-0 19463-3 0 4258 2 25544 051.6489 166.5879 0005435 009.7565 025.6324 15.50260959866695 CXO 1 25867U 99040B 14011.85883760 -.00000379 00000-0 00000+0 0 9812 2 25867 076.4500 327.9621 8324543 275.8651 000.3861 00.37800110 11320 ____________________________________________________________________ These 2-Line ...Continue Reading
  • This mailing list is a public mailing list - anyone may join or leave, at any time.
  • This mailing list is announce-only.

International Space Station (ISS) / Hubble Space Telescope (HST) / Chandra X-Ray Observatory Orbital Data via EMAIL

Privacy Policy:

Private list